Location: Bailen
(14.1842°N, 120.7958°E)
Time: 15:53:03
(UTC+00:00)

Lacrosse 4 Rocket - Pass Details

Date: 24 April 2026
Orbit: 506 x 567 km, 68.0° (Epoch: 14 May)

Event Time Altitude Azimuth Distance (km) Brightness Sun altitude
Exits shadow 20:59:45 13° 265° (W) 1,546 3.0 -9.8°
Maximum altitude 21:01:23 16° 293° (WNW) 1,389 2.9 -9.4°
Drops below altitude 10° 21:03:48 10° 332° (NNW) 1,732 3.7 -8.8°
Sets 21:06:40 0° 355° (N) 2,630 4.9 -8.2°
